Torna al catalogo

FENGYUN 1C DEB

AttivoSSO
NORAD 36216·DEBRIS·🇨🇳 China

Lanciato May 10, 1999 da Taiyuan Satellite Launch Center

Loading…

Prossimi Passaggi (prossime 24 ore)

TLE

AggiornatoSource: Space-Track

Epoca: Sep 12, 2026, 07:28 UTC

1 36216U 99025DUR 26255.31170458  .00000382  00000-0  20122-3 0  9995
2 36216  98.5945 272.4174 0043526 308.1026  51.6228 14.19190620682527

Traccia FENGYUN 1C DEB in tempo reale con AllMySat

Download on the App Store